Content
SEND FEEDBACK

Daily
Averages
Monthly
Summary
Uruguay

RADIAL CONCHILLAS, URUGUAY


Home > South America > Uruguay
Elevation: 4 feet     Latitude: 34 11S     Longitude: 058 14W

WEATHER
 
SELECT A DAY
Number of Records: 164,000;   Date Range: 6/30/96 - 7/8/14
 
SHARE

PRINT THIS DATA

[ ← Previous Day ]
WEATHER ALMANAC - JANUARY 31, 2013
[ Next Day → ]
[ °C ]   °F
Weather ElementAverageHighLow
Temperature81.7 °F89.6 °F (4:00 pm)75.2 °F (7:00 am)
Dewpoint70.2 °F73.4 °F (8:00 am)64 °F (9:00 pm)
Humidity67.9 %89 % (7:00 am)40 % (6:00 pm)
Barometer29.80 in29.86 in (12:00 am)29.71 in (8:00 pm)
Wind Speed7.8 mph11.5 mph (11:00 pm)
Weather ElementAverage
Visibility6 mi
Wind DirectionSSE (161.7 °)

Weather ElementTotal
Precipitation---
Cooling Degree Days17.4 (Base 65)
Growing Degree Days32.4 (Base 50)
Averaged from 30 records on January 31, 2013
WEATHER CONDITIONS BREAKOUT
WIND DIRECTION BREAKOUT
WEATHER BY HOUR - JANUARY 31, 2013
[ °C ]   °F
Local TimeTemperatureDewpointHumidityBarometerVisibilityWind DirectionWind SpeedGust SpeedPrecipitationEventsConditions
12:00 AM80.6 °F71.6 °F74 %29.86 inESE (110°)10.4 mphClear
1:00 AM78.8 °F69.8 °F74 %29.83 inESE (110°)10.4 mphClear
2:00 AM78.8 °F71.6 °F78 %29.83 inEast (90°)8.1 mphClear
3:00 AM78.8 °F71.6 °F78 %29.80 inSSE (160°)6.9 mphClear
4:00 AM78.8 °F71.6 °F78 %29.80 inESE (110°)5.8 mphClear
5:00 AM77.0 °F69.8 °F78 %29.80 inSSE (160°)8.1 mphClear
6:00 AM77.0 °F71.6 °F83 %29.83 inSSE (160°)6.9 mphClear
6:00 AM76.0 °F72.0 °F82 %29.83 in6.0 miSSE (160°)6.9 mphClear
7:00 AM75.2 °F71.6 °F89 %29.80 in5.0 miESE (110°)8.1 mphMostly Cloudy
8:00 AM78.8 °F73.4 °F83 %29.80 in5.0 miESE (110°)9.2 mphMostly Cloudy
9:00 AM80.0 °F73.0 °F73 %29.86 in6.0 miESE (110°)8.1 mphMist
9:00 AM80.6 °F73.4 °F79 %29.86 in6.2 miESE (110°)8.1 mphMostly Cloudy
10:00 AM80.6 °F73.4 °F79 %29.86 in6.2 miESE (110°)8.1 mphMostly Cloudy
11:00 AM80.6 °F73.4 °F79 %29.86 in6.2 miESE (110°)9.2 mphMostly Cloudy
12:00 PM80.6 °F73.4 °F79 %29.83 inEast (90°)8.1 mphClear
12:00 PM81.0 °F73.0 °F70 %29.85 in6.0 miEast (90°)8.1 mphScattered Clouds
1:00 PM82.4 °F73.4 °F74 %29.83 in6.2 miEast (90°)5.8 mphMostly Cloudy
2:00 PM82.4 °F73.4 °F74 %29.83 in6.2 miNNE (20°)4.6 mphMostly Cloudy
3:00 PM85.0 °F73.0 °F59 %29.81 in6.0 miNNW (340°)5.8 mphOvercast
3:00 PM84.2 °F73.4 °F70 %29.80 in6.2 miNNW (340°)5.8 mphMostly Cloudy
4:00 PM89.6 °F69.8 °F52 %29.77 in6.2 miNW (320°)6.9 mphMostly Cloudy
5:00 PM87.8 °F68.0 °F52 %29.77 in6.2 miWNW (290°)10.4 mphMostly Cloudy
6:00 PM86.0 °F64.4 °F48 %29.74 in6.2 miWest (270°)9.2 mphMostly Cloudy
6:00 PM86.0 °F65.0 °F40 %29.76 in6.0 miWest (270°)9.2 mphOvercast
7:00 PM84.2 °F66.2 °F55 %29.74 in6.2 miWSW (250°)8.1 mphMostly Cloudy
8:00 PM84.2 °F64.4 °F51 %29.71 in6.2 miSouth (180°)8.1 mphMostly Cloudy
9:00 PM84.0 °F64.0 °F41 %29.73 in6.0 miSouth (180°)5.8 mphPartly Cloudy
9:00 PM84.2 °F64.4 °F51 %29.71 in6.2 miSouth (180°)5.8 mphScattered Clouds
10:00 PM84.2 °F64.4 °F51 %29.74 in6.2 miESE (110°)5.8 mphScattered Clouds
11:00 PM82.4 °F68.0 °F62 %29.74 in6.2 miESE (110°)11.5 mphScattered Clouds
Hourly data recorded from SABE, located miles away from Radial Conchillas, Uruguay







STORIES FROM OUR PARTNERS